| time (UTC) | temp F | wind direction | speed MPH | gust MPH | rain 1hr in | rain 24hr in | rain mn in | humidity % | barometer mb |
| 20260502152109 | 56 | 112 | 0.0 | 4.0 | 0.00 | 0.00 | 0.00 | 51 | 1023.1 |
| 20260502151606 | 57 | 122 | 0.0 | 2.0 | 0.00 | 0.00 | 0.00 | 61 | 1023.0 |
| 20260502151103 | 56 | 116 | 1.0 | 3.0 | 0.00 | 0.00 | 0.00 | 52 | 1023.2 |
| 20260502150601 | 55 | 80 | 2.0 | 7.0 | 0.00 | 0.00 | 0.00 | 56 | 1022.9 |
| 20260502130446 | 45 | 83 | 0.0 | 1.0 | 0.00 | 0.00 | 0.00 | 67 | 1022.6 |
| 20260502123428 | 44 | 112 | 0.0 | 2.0 | 0.00 | 0.00 | 0.00 | 69 | 1022.2 |
| 20260502122925 | 42 | 111 | 0.0 | 0.0 | 0.00 | 0.00 | 0.00 | 72 | 1022.0 |
| 20260502122421 | 42 | 119 | 0.0 | 0.0 | 0.00 | 0.00 | 0.00 | 71 | 1022.1 |
| 20260502121920 | 41 | 122 | 0.0 | 1.0 | 0.00 | 0.00 | 0.00 | 74 | 1022.2 |
| 20260502121416 | 40 | 80 | 0.0 | 0.0 | 0.00 | 0.00 | 0.00 | 75 | 1022.1 |
| 20260502120914 | 40 | 125 | 0.0 | 2.0 | 0.00 | 0.00 | 0.00 | 76 | 1021.9 |
| 20260502120410 | 39 | 145 | 0.0 | 0.0 | 0.00 | 0.00 | 0.00 | 77 | 1022.0 |
| 20260502115908 | 38 | 121 | 0.0 | 0.0 | 0.00 | 0.00 | 0.00 | 78 | 1021.7 |
| 20260502115405 | 38 | 120 | 0.0 | 0.0 | 0.00 | 0.00 | 0.00 | 79 | 1021.9 |
| 20260502114900 | 37 | 106 | 0.0 | 0.0 | 0.00 | 0.00 | 0.00 | 80 | 1021.6 |
| 20260502114358 | 37 | 121 | 0.0 | 0.0 | 0.00 | 0.00 | 0.00 | 83 | 1021.6 |
| 20260502113855 | 35 | 128 | 0.0 | 0.0 | 0.00 | 0.00 | 0.00 | 88 | 1021.6 |
| 20260502113352 | 35 | 118 | 0.0 | 0.0 | 0.00 | 0.00 | 0.00 | 90 | 1021.6 |
| 20260502112850 | 34 | 117 | 0.0 | 0.0 | 0.00 | 0.00 | 0.00 | 91 | 1021.3 |
| 20260502112348 | 34 | 117 | 0.0 | 0.0 | 0.00 | 0.00 | 0.00 | 91 | 1021.4 |
| 20260502111845 | 34 | 117 | 0.0 | 0.0 | 0.00 | 0.00 | 0.00 | 91 | 1021.4 |
| 20260502111342 | 34 | 117 | 0.0 | 0.0 | 0.00 | 0.00 | 0.00 | 91 | 1021.4 |
| 20260502110840 | 34 | 117 | 0.0 | 0.0 | 0.00 | 0.00 | 0.00 | 91 | 1021.3 |
| 20260502110338 | 34 | 117 | 0.0 | 0.0 | 0.00 | 0.00 | 0.00 | 90 | 1021.3 |
| 20260502105835 | 34 | 117 | 0.0 | 0.0 | 0.00 | 0.00 | 0.00 | 91 | 1021.2 |
| 20260502105332 | 34 | 117 | 0.0 | 0.0 | 0.00 | 0.00 | 0.00 | 91 | 1021.3 |
| 20260502104829 | 34 | 117 | 0.0 | 0.0 | 0.00 | 0.00 | 0.00 | 90 | 1021.2 |
| 20260502104327 | 35 | 117 | 0.0 | 0.0 | 0.00 | 0.00 | 0.00 | 89 | 1021.2 |
| 20260502103823 | 35 | 118 | 0.0 | 0.0 | 0.00 | 0.00 | 0.00 | 89 | 1021.3 |
| 20260502103321 | 35 | 117 | 0.0 | 0.0 | 0.00 | 0.00 | 0.00 | 88 | 1021.0 |
| 20260502102818 | 35 | 118 | 0.0 | 0.0 | 0.00 | 0.00 | 0.00 | 87 | 1021.2 |
| 20260502102314 | 36 | 118 | 0.0 | 0.0 | 0.00 | 0.00 | 0.00 | 86 | 1021.1 |
| 20260502101812 | 36 | 118 | 0.0 | 0.0 | 0.00 | 0.00 | 0.00 | 86 | 1021.0 |
| 20260502101310 | 36 | 118 | 0.0 | 0.0 | 0.00 | 0.00 | 0.00 | 85 | 1021.0 |
| 20260502100808 | 36 | 118 | 0.0 | 0.0 | 0.00 | 0.00 | 0.00 | 84 | 1021.0 |
| 20260502100307 | 36 | 118 | 0.0 | 0.0 | 0.00 | 0.00 | 0.00 | 83 | 1021.0 |
| 20260502091241 | 39 | 119 | 0.0 | 0.0 | 0.00 | 0.00 | 0.00 | 75 | 1020.8 |
| 20260502090738 | 39 | 118 | 0.0 | 0.0 | 0.00 | 0.00 | 0.00 | 74 | 1020.7 |
| 20260502090234 | 40 | 118 | 0.0 | 0.0 | 0.00 | 0.00 | 0.00 | 74 | 1020.7 |
| 20260502071136 | 41 | 118 | 0.0 | 0.0 | 0.00 | 0.00 | 0.00 | 69 | 1020.5 |
| 20260502070634 | 41 | 118 | 0.0 | 0.0 | 0.00 | 0.00 | 0.00 | 71 | 1020.7 |
| 20260502070131 | 41 | 118 | 0.0 | 0.0 | 0.00 | 0.00 | 0.00 | 71 | 1020.6 |
| 20260502065629 | 41 | 123 | 0.0 | 0.0 | 0.00 | 0.00 | 0.00 | 71 | 1020.6 |
| 20260502065126 | 41 | 123 | 0.0 | 0.0 | 0.00 | 0.00 | 0.00 | 71 | 1020.6 |
| 20260502064626 | 42 | 123 | 0.0 | 0.0 | 0.00 | 0.00 | 0.00 | 70 | 1020.8 |
| 20260502064122 | 42 | 123 | 0.0 | 0.0 | 0.00 | 0.00 | 0.00 | 69 | 1020.8 |
| 20260502063620 | 42 | 118 | 0.0 | 0.0 | 0.00 | 0.00 | 0.00 | 68 | 1020.7 |
| 20260502063117 | 43 | 118 | 0.0 | 0.0 | 0.00 | 0.00 | 0.00 | 68 | 1020.8 |
| 20260502062614 | 44 | 119 | 0.0 | 0.0 | 0.00 | 0.00 | 0.00 | 65 | 1020.7 |
| 20260502062112 | 44 | 118 | 0.0 | 0.0 | 0.00 | 0.00 | 0.00 | 64 | 1020.8 |
| 20260502061610 | 45 | 121 | 0.0 | 0.0 | 0.00 | 0.00 | 0.00 | 64 | 1020.7 |
| 20260502061107 | 45 | 104 | 0.0 | 0.0 | 0.00 | 0.00 | 0.00 | 62 | 1020.8 |
| 20260502060607 | 45 | 113 | 0.0 | 0.0 | 0.00 | 0.00 | 0.00 | 62 | 1020.8 |
| 20260502060104 | 45 | 114 | 0.0 | 0.0 | 0.00 | 0.00 | 0.00 | 61 | 1020.9 |
| 20260502055602 | 45 | 108 | 0.0 | 0.0 | 0.00 | 0.00 | 0.00 | 63 | 1020.9 |
| 20260502055100 | 45 | 118 | 0.0 | 0.0 | 0.00 | 0.00 | 0.00 | 65 | 1020.6 |
| 20260502054559 | 44 | 111 | 0.0 | 0.0 | 0.00 | 0.00 | 0.00 | 65 | 1020.8 |
| 20260502054055 | 44 | 105 | 0.0 | 0.0 | 0.00 | 0.00 | 0.00 | 67 | 1020.8 |
| 20260502053552 | 44 | 121 | 0.0 | 0.0 | 0.00 | 0.00 | 0.00 | 67 | 1020.8 |
| 20260502053050 | 44 | 120 | 0.0 | 0.0 | 0.00 | 0.00 | 0.00 | 66 | 1020.7 |
| 20260502052548 | 44 | 121 | 0.0 | 0.0 | 0.00 | 0.00 | 0.00 | 66 | 1020.8 |
| 20260502052046 | 45 | 121 | 0.0 | 0.0 | 0.00 | 0.00 | 0.00 | 65 | 1020.8 |
| 20260502051544 | 45 | 124 | 0.0 | 0.0 | 0.00 | 0.00 | 0.00 | 66 | 1020.6 |
| 20260502051041 | 45 | 121 | 0.0 | 0.0 | 0.00 | 0.00 | 0.00 | 66 | 1020.6 |
| 20260502050537 | 45 | 121 | 0.0 | 0.0 | 0.00 | 0.00 | 0.00 | 66 | 1020.6 |
| 20260502050034 | 45 | 121 | 0.0 | 0.0 | 0.00 | 0.00 | 0.00 | 66 | 1020.5 |
| 20260502045531 | 46 | 110 | 0.0 | 0.0 | 0.00 | 0.00 | 0.00 | 65 | 1020.6 |
| 20260502045028 | 45 | 120 | 0.0 | 0.0 | 0.00 | 0.00 | 0.00 | 68 | 1020.7 |
| 20260502044525 | 46 | 120 | 0.0 | 0.0 | 0.00 | 0.00 | 0.00 | 67 | 1020.7 |
| 20260502044021 | 46 | 122 | 0.0 | 0.0 | 0.00 | 0.00 | 0.00 | 66 | 1020.5 |
| 20260502043519 | 45 | 123 | 0.0 | 0.0 | 0.00 | 0.00 | 0.00 | 67 | 1020.5 |
| 20260502043015 | 45 | 119 | 0.0 | 0.0 | 0.00 | 0.00 | 0.00 | 69 | 1020.5 |
| 20260502042510 | 44 | 118 | 0.0 | 0.0 | 0.00 | 0.00 | 0.00 | 72 | 1020.5 |
| 20260502042008 | 45 | 118 | 0.0 | 0.0 | 0.00 | 0.00 | 0.00 | 72 | 1020.4 |
| 20260502041506 | 45 | 118 | 0.0 | 0.0 | 0.00 | 0.00 | 0.00 | 71 | 1020.3 |
| 20260502041002 | 45 | 118 | 0.0 | 0.0 | 0.00 | 0.00 | 0.00 | 72 | 1020.4 |
| 20260502040459 | 46 | 118 | 0.0 | 0.0 | 0.00 | 0.00 | 0.00 | 71 | 1020.3 |
| 20260502035955 | 46 | 118 | 0.0 | 0.0 | 0.00 | 0.00 | 0.00 | 70 | 1020.4 |
| 20260502035451 | 46 | 118 | 0.0 | 0.0 | 0.00 | 0.00 | 0.00 | 69 | 1020.2 |
| 20260502034949 | 47 | 118 | 0.0 | 0.0 | 0.00 | 0.00 | 0.00 | 68 | 1020.3 |
| 20260502034448 | 47 | 118 | 0.0 | 0.0 | 0.00 | 0.00 | 0.00 | 66 | 1020.2 |
| 20260502033946 | 47 | 117 | 0.0 | 0.0 | 0.00 | 0.00 | 0.00 | 68 | 1020.2 |
| 20260502033443 | 46 | 121 | 0.0 | 0.0 | 0.00 | 0.00 | 0.00 | 69 | 1020.2 |
| 20260502032939 | 46 | 119 | 0.0 | 0.0 | 0.00 | 0.00 | 0.00 | 71 | 1020.2 |
| 20260502032436 | 46 | 119 | 0.0 | 0.0 | 0.00 | 0.00 | 0.00 | 72 | 1020.2 |
| 20260502031933 | 47 | 119 | 0.0 | 0.0 | 0.00 | 0.00 | 0.00 | 70 | 1020.1 |
| 20260502031432 | 47 | 119 | 0.0 | 0.0 | 0.00 | 0.00 | 0.00 | 70 | 1020.2 |
| 20260502030929 | 47 | 119 | 0.0 | 0.0 | 0.00 | 0.00 | 0.00 | 69 | 1019.9 |
| 20260502030427 | 47 | 119 | 0.0 | 0.0 | 0.00 | 0.00 | 0.00 | 69 | 1019.9 |
| 20260502025925 | 48 | 119 | 0.0 | 0.0 | 0.00 | 0.00 | 0.00 | 67 | 1019.8 |
| 20260502025422 | 48 | 119 | 0.0 | 0.0 | 0.00 | 0.00 | 0.00 | 66 | 1019.7 |
| 20260502024919 | 49 | 119 | 0.0 | 0.0 | 0.00 | 0.00 | 0.00 | 67 | 1019.6 |
| 20260502024418 | 49 | 119 | 0.0 | 0.0 | 0.00 | 0.00 | 0.00 | 64 | 1019.4 |
| 20260502023915 | 50 | 119 | 0.0 | 0.0 | 0.00 | 0.00 | 0.00 | 62 | 1019.6 |
| 20260502023413 | 50 | 119 | 0.0 | 0.0 | 0.00 | 0.00 | 0.00 | 61 | 1019.3 |
| 20260502022910 | 51 | 119 | 0.0 | 0.0 | 0.00 | 0.00 | 0.00 | 61 | 1019.3 |
| 20260502022406 | 51 | 119 | 0.0 | 0.0 | 0.00 | 0.00 | 0.00 | 60 | 1019.3 |
| 20260502021903 | 51 | 119 | 0.0 | 0.0 | 0.00 | 0.00 | 0.00 | 58 | 1019.2 |
| 20260502021400 | 52 | 115 | 0.0 | 0.0 | 0.00 | 0.00 | 0.00 | 57 | 1019.1 |
| 20260502020858 | 52 | 115 | 0.0 | 0.0 | 0.00 | 0.00 | 0.00 | 55 | 1019.0 |
| 20260502020355 | 53 | 111 | 0.0 | 0.0 | 0.00 | 0.00 | 0.00 | 54 | 1018.8 |
| 20260502015852 | 54 | 112 | 0.0 | 0.0 | 0.00 | 0.00 | 0.00 | 52 | 1018.9 |
| 20260502015349 | 54 | 108 | 0.0 | 0.0 | 0.00 | 0.00 | 0.00 | 51 | 1018.9 |
| 20260502014847 | 55 | 122 | 0.0 | 0.0 | 0.00 | 0.00 | 0.00 | 51 | 1018.8 |
| 20260502014343 | 54 | 98 | 0.0 | 0.0 | 0.00 | 0.00 | 0.00 | 51 | 1018.7 |
| 20260502013839 | 55 | 107 | 0.0 | 0.0 | 0.00 | 0.00 | 0.00 | 51 | 1018.7 |
| 20260502013335 | 55 | 127 | 0.0 | 0.0 | 0.00 | 0.00 | 0.00 | 50 | 1018.6 |
| 20260502012832 | 55 | 115 | 0.0 | 0.0 | 0.00 | 0.00 | 0.00 | 49 | 1018.4 |
| 20260502012330 | 56 | 112 | 0.0 | 0.0 | 0.00 | 0.00 | 0.00 | 47 | 1018.4 |
| 20260502011827 | 57 | 101 | 0.0 | 1.0 | 0.00 | 0.00 | 0.00 | 45 | 1018.3 |
| 20260502011323 | 57 | 120 | 0.0 | 0.0 | 0.00 | 0.00 | 0.00 | 45 | 1018.1 |
| 20260502010820 | 58 | 111 | 0.0 | 1.0 | 0.00 | 0.00 | 0.00 | 44 | 1018.0 |
| 20260502010317 | 58 | 110 | 0.0 | 4.0 | 0.00 | 0.00 | 0.00 | 43 | 1018.1 |
| 20260502005814 | 59 | 123 | 0.0 | 1.0 | 0.00 | 0.00 | 0.00 | 41 | 1017.9 |
| 20260502005312 | 59 | 165 | 0.0 | 1.0 | 0.00 | 0.00 | 0.00 | 42 | 1017.9 |
| 20260502004809 | 60 | 110 | 0.0 | 0.0 | 0.00 | 0.00 | 0.00 | 41 | 1017.9 |
| 20260502004304 | 60 | 115 | 0.0 | 1.0 | 0.00 | 0.00 | 0.00 | 40 | 1017.7 |
| 20260502003803 | 60 | 196 | 1.0 | 2.0 | 0.00 | 0.00 | 0.00 | 39 | 1017.8 |
| 20260502003259 | 60 | 138 | 1.0 | 7.0 | 0.00 | 0.00 | 0.00 | 39 | 1017.6 |
| 20260502002755 | 61 | 35 | 0.0 | 1.0 | 0.00 | 0.00 | 0.00 | 40 | 1017.7 |
| 20260502002253 | 62 | 89 | 1.0 | 2.0 | 0.00 | 0.00 | 0.00 | 37 | 1017.7 |
| 20260502001750 | 62 | 162 | 1.0 | 2.0 | 0.00 | 0.00 | 0.00 | 37 | 1017.6 |
| 20260502001248 | 63 | 123 | 2.0 | 4.0 | 0.00 | 0.00 | 0.00 | 36 | 1017.4 |
| 20260502000745 | 63 | 35 | 1.0 | 4.0 | 0.00 | 0.00 | 0.00 | 36 | 1017.2 |
| 20260502000244 | 63 | 188 | 1.0 | 6.0 | 0.00 | 0.00 | 0.00 | 35 | 1017.5 |
| 20260501235738 | 62 | 264 | 3.0 | 6.0 | 0.00 | 0.00 | 0.00 | 37 | 1017.6 |
| 20260501235234 | 63 | 22 | 1.0 | 3.0 | 0.00 | 0.00 | 0.00 | 37 | 1017.3 |
| 20260501234730 | 62 | 337 | 1.0 | 4.0 | 0.00 | 0.00 | 0.00 | 37 | 1017.4 |
| 20260501234228 | 62 | 36 | 0.0 | 3.0 | 0.00 | 0.00 | 0.00 | 39 | 1017.4 |
| 20260501233726 | 64 | 29 | 1.0 | 7.0 | 0.00 | 0.00 | 0.00 | 37 | 1017.5 |
| 20260501233223 | 64 | 51 | 0.0 | 6.0 | 0.00 | 0.00 | 0.00 | 35 | 1017.4 |
| 20260501232718 | 64 | 132 | 0.0 | 3.0 | 0.00 | 0.00 | 0.00 | 38 | 1017.5 |
| 20260501232216 | 64 | 336 | 4.0 | 4.0 | 0.00 | 0.00 | 0.00 | 35 | 1017.4 |
| 20260501231713 | 64 | 292 | 5.0 | 7.0 | 0.00 | 0.00 | 0.00 | 34 | 1017.4 |
| 20260501231211 | 65 | 227 | 3.0 | 6.0 | 0.00 | 0.00 | 0.00 | 33 | 1017.5 |
| 20260501230710 | 66 | 249 | 3.0 | 3.0 | 0.00 | 0.00 | 0.00 | 35 | 1017.4 |
| 20260501230208 | 66 | 338 | 1.0 | 4.0 | 0.00 | 0.00 | 0.00 | 35 | 1017.3 |
| 20260501225705 | 66 | 73 | 1.0 | 6.0 | 0.00 | 0.00 | 0.00 | 36 | 1017.3 |
| 20260501225202 | 66 | 145 | 0.0 | 2.0 | 0.00 | 0.00 | 0.00 | 38 | 1017.4 |
| 20260501224658 | 66 | 85 | 1.0 | 2.0 | 0.00 | 0.00 | 0.00 | 35 | 1017.4 |
| 20260501224155 | 66 | 116 | 1.0 | 3.0 | 0.00 | 0.00 | 0.00 | 39 | 1017.4 |
| 20260501223652 | 65 | 91 | 1.0 | 4.0 | 0.00 | 0.00 | 0.00 | 35 | 1017.4 |
| 20260501223148 | 66 | 283 | 6.0 | 8.0 | 0.00 | 0.00 | 0.00 | 34 | 1017.3 |
| 20260501222644 | 66 | 261 | 4.0 | 7.0 | 0.00 | 0.00 | 0.00 | 36 | 1017.4 |
| 20260501222142 | 66 | 86 | 2.0 | 2.0 | 0.00 | 0.00 | 0.00 | 37 | 1017.5 |
| 20260501221638 | 66 | 45 | 1.0 | 3.0 | 0.00 | 0.00 | 0.00 | 35 | 1017.6 |
| 20260501221137 | 66 | 157 | 2.0 | 4.0 | 0.00 | 0.00 | 0.00 | 40 | 1017.6 |
| 20260501220633 | 66 | 265 | 2.0 | 6.0 | 0.00 | 0.00 | 0.00 | 39 | 1017.6 |
| 20260501220130 | 66 | 24 | 2.0 | 6.0 | 0.00 | 0.00 | 0.00 | 37 | 1017.7 |
| 20260501215627 | 65 | 359 | 2.0 | 4.0 | 0.00 | 0.00 | 0.00 | 36 | 1017.7 |
| 20260501215122 | 63 | 245 | 0.0 | 4.0 | 0.00 | 0.00 | 0.00 | 39 | 1017.6 |
| 20260501214617 | 63 | 163 | 1.0 | 6.0 | 0.00 | 0.00 | 0.00 | 37 | 1017.8 |
| 20260501214113 | 63 | 22 | 2.0 | 6.0 | 0.00 | 0.00 | 0.00 | 38 | 1017.6 |
| 20260501213610 | 63 | 313 | 8.0 | 11.0 | 0.00 | 0.00 | 0.00 | 37 | 1017.9 |
| 20260501213106 | 64 | 313 | 1.0 | 3.0 | 0.00 | 0.00 | 0.00 | 40 | 1018.0 |
| 20260501212603 | 64 | 119 | 1.0 | 6.0 | 0.00 | 0.00 | 0.00 | 40 | 1017.8 |
| 20260501212100 | 64 | 77 | 0.0 | 3.0 | 0.00 | 0.00 | 0.00 | 39 | 1018.1 |
| 20260501211556 | 63 | 91 | 0.0 | 6.0 | 0.00 | 0.00 | 0.00 | 42 | 1018.1 |
| 20260501211055 | 63 | 55 | 2.0 | 4.0 | 0.00 | 0.00 | 0.00 | 39 | 1018.2 |
| 20260501210550 | 64 | 30 | 2.0 | 3.0 | 0.00 | 0.00 | 0.00 | 39 | 1018.2 |
| 20260501210047 | 63 | 58 | 0.0 | 6.0 | 0.00 | 0.00 | 0.00 | 43 | 1018.3 |
| 20260501205544 | 63 | 196 | 3.0 | 8.0 | 0.00 | 0.00 | 0.00 | 38 | 1018.6 |
| 20260501205042 | 64 | 258 | 4.0 | 7.0 | 0.00 | 0.00 | 0.00 | 38 | 1018.7 |
| 20260501204538 | 66 | 255 | 2.0 | 3.0 | 0.00 | 0.00 | 0.00 | 40 | 1018.6 |
| 20260501204034 | 65 | 141 | 0.0 | 3.0 | 0.00 | 0.00 | 0.00 | 41 | 1018.7 |
| 20260501203530 | 64 | 294 | 1.0 | 4.0 | 0.00 | 0.00 | 0.00 | 40 | 1018.8 |
| 20260501203028 | 64 | 278 | 3.0 | 4.0 | 0.00 | 0.00 | 0.00 | 39 | 1019.0 |
| 20260501202525 | 64 | 248 | 1.0 | 3.0 | 0.00 | 0.00 | 0.00 | 39 | 1018.8 |
| 20260501202021 | 64 | 277 | 1.0 | 4.0 | 0.00 | 0.00 | 0.00 | 40 | 1018.9 |
| 20260501201519 | 64 | 318 | 1.0 | 3.0 | 0.00 | 0.00 | 0.00 | 36 | 1019.2 |
| 20260501201015 | 63 | 81 | 0.0 | 2.0 | 0.00 | 0.00 | 0.00 | 43 | 1019.0 |
| 20260501200512 | 62 | 120 | 2.0 | 4.0 | 0.00 | 0.00 | 0.00 | 41 | 1019.2 |
| 20260501200010 | 62 | 165 | 0.0 | 3.0 | 0.00 | 0.00 | 0.00 | 40 | 1019.2 |
| 20260501195507 | 62 | 120 | 0.0 | 3.0 | 0.00 | 0.00 | 0.00 | 38 | 1019.4 |
| 20260501195002 | 62 | 268 | 1.0 | 4.0 | 0.00 | 0.00 | 0.00 | 37 | 1019.4 |
| 20260501194458 | 63 | 106 | 1.0 | 6.0 | 0.00 | 0.00 | 0.00 | 41 | 1019.4 |
| 20260501193954 | 64 | 216 | 1.0 | 3.0 | 0.00 | 0.00 | 0.00 | 42 | 1019.4 |
| 20260501193452 | 62 | 117 | 0.0 | 4.0 | 0.00 | 0.00 | 0.00 | 40 | 1019.4 |
| 20260501192950 | 62 | 163 | 1.0 | 1.0 | 0.00 | 0.00 | 0.00 | 40 | 1019.5 |
| 20260501192447 | 63 | 221 | 2.0 | 3.0 | 0.00 | 0.00 | 0.00 | 38 | 1019.5 |
| 20260501191944 | 63 | 178 | 4.0 | 6.0 | 0.00 | 0.00 | 0.00 | 37 | 1019.6 |
| 20260501191441 | 64 | 303 | 3.0 | 8.0 | 0.00 | 0.00 | 0.00 | 38 | 1019.6 |
| 20260501190938 | 66 | 111 | 1.0 | 3.0 | 0.00 | 0.00 | 0.00 | 35 | 1019.6 |
| 20260501190434 | 65 | 74 | 1.0 | 2.0 | 0.00 | 0.00 | 0.00 | 35 | 1019.3 |
| 20260501185929 | 65 | 271 | 3.0 | 4.0 | 0.00 | 0.00 | 0.00 | 36 | 1019.6 |
| 20260501185425 | 64 | 57 | 2.0 | 2.0 | 0.00 | 0.00 | 0.00 | 39 | 1019.5 |
| 20260501184921 | 62 | 137 | 0.0 | 4.0 | 0.00 | 0.00 | 0.00 | 38 | 1019.6 |
| 20260501184418 | 63 | 273 | 4.0 | 8.0 | 0.00 | 0.00 | 0.00 | 39 | 1019.7 |
| 20260501183913 | 64 | 121 | 2.0 | 3.0 | 0.00 | 0.00 | 0.00 | 43 | 1019.7 |
| 20260501183410 | 64 | 39 | 4.0 | 7.0 | 0.00 | 0.00 | 0.00 | 36 | 1019.7 |
| 20260501182906 | 65 | 145 | 1.0 | 4.0 | 0.00 | 0.00 | 0.00 | 40 | 1019.9 |
| 20260501182403 | 65 | 255 | 2.0 | 3.0 | 0.00 | 0.00 | 0.00 | 38 | 1019.8 |
| 20260501181900 | 64 | 274 | 4.0 | 7.0 | 0.00 | 0.00 | 0.00 | 38 | 1019.9 |
| 20260501181357 | 64 | 79 | 0.0 | 4.0 | 0.00 | 0.00 | 0.00 | 41 | 1019.8 |
| 20260501180855 | 63 | 224 | 2.0 | 4.0 | 0.00 | 0.00 | 0.00 | 37 | 1019.8 |
| 20260501180351 | 63 | 47 | 1.0 | 9.0 | 0.00 | 0.00 | 0.00 | 37 | 1019.8 |
| 20260501175848 | 64 | 184 | 2.0 | 3.0 | 0.00 | 0.00 | 0.00 | 38 | 1019.8 |
| 20260501175344 | 63 | 339 | 6.0 | 7.0 | 0.00 | 0.00 | 0.00 | 38 | 1019.8 |
| 20260501174841 | 63 | 118 | 0.0 | 4.0 | 0.00 | 0.00 | 0.00 | 44 | 1019.7 |
| 20260501174339 | 63 | 199 | 2.0 | 4.0 | 0.00 | 0.00 | 0.00 | 45 | 1019.8 |
| 20260501173837 | 63 | 101 | 1.0 | 3.0 | 0.00 | 0.00 | 0.00 | 41 | 1020.1 |
| 20260501173334 | 63 | 115 | 2.0 | 4.0 | 0.00 | 0.00 | 0.00 | 45 | 1020.1 |
| 20260501172829 | 64 | 98 | 0.0 | 2.0 | 0.00 | 0.00 | 0.00 | 41 | 1020.0 |
| 20260501172325 | 63 | 164 | 2.0 | 4.0 | 0.00 | 0.00 | 0.00 | 46 | 1020.1 |
| 20260501171820 | 62 | 64 | 1.0 | 7.0 | 0.00 | 0.00 | 0.00 | 45 | 1020.3 |
| 20260501171318 | 62 | 147 | 2.0 | 6.0 | 0.00 | 0.00 | 0.00 | 43 | 1020.1 |
| 20260501170814 | 63 | 215 | 3.0 | 6.0 | 0.00 | 0.00 | 0.00 | 38 | 1020.2 |
| 20260501170311 | 63 | 188 | 2.0 | 3.0 | 0.00 | 0.00 | 0.00 | 42 | 1020.3 |
| 20260501165808 | 64 | 325 | 2.0 | 2.0 | 0.00 | 0.00 | 0.00 | 38 | 1020.2 |
| 20260501165306 | 62 | 136 | 1.0 | 2.0 | 0.00 | 0.00 | 0.00 | 47 | 1020.3 |
| 20260501164804 | 61 | 120 | 1.0 | 4.0 | 0.00 | 0.00 | 0.00 | 43 | 1020.3 |
| 20260501164301 | 61 | 55 | 0.0 | 3.0 | 0.00 | 0.00 | 0.00 | 42 | 1020.4 |
| 20260501163756 | 62 | 249 | 5.0 | 8.0 | 0.00 | 0.00 | 0.00 | 41 | 1020.2 |
| 20260501163254 | 61 | 155 | 2.0 | 4.0 | 0.00 | 0.00 | 0.00 | 48 | 1020.2 |
| 20260501162750 | 61 | 190 | 1.0 | 6.0 | 0.00 | 0.00 | 0.00 | 40 | 1019.9 |
| 20260501162247 | 60 | 172 | 0.0 | 2.0 | 0.00 | 0.00 | 0.00 | 43 | 1020.2 |
| 20260501161744 | 60 | 107 | 0.0 | 4.0 | 0.00 | 0.00 | 0.00 | 46 | 1020.0 |
| 20260501161241 | 60 | 63 | 2.0 | 6.0 | 0.00 | 0.00 | 0.00 | 46 | 1020.0 |
| 20260501160737 | 60 | 229 | 3.0 | 6.0 | 0.00 | 0.00 | 0.00 | 41 | 1020.1 |
| 20260501160234 | 60 | 152 | 1.0 | 4.0 | 0.00 | 0.00 | 0.00 | 48 | 1019.8 |
| 20260501155732 | 59 | 113 | 1.0 | 4.0 | 0.00 | 0.00 | 0.00 | 43 | 1020.1 |
| 20260501155229 | 60 | 194 | 3.0 | 7.0 | 0.00 | 0.00 | 0.00 | 44 | 1020.0 |
| 20260501154725 | 61 | 106 | 1.0 | 2.0 | 0.00 | 0.00 | 0.00 | 47 | 1019.9 |
| 20260501154222 | 59 | 100 | 0.0 | 4.0 | 0.00 | 0.00 | 0.00 | 52 | 1020.0 |
| 20260501153720 | 59 | 167 | 2.0 | 3.0 | 0.00 | 0.00 | 0.00 | 47 | 1019.9 |